• In Hungary
  • List of Countries
  • For 7 days
  • Water Temperature
  • Satellite Maps
  • Weather Map
  • News
  • Weather Widgets
  • user-avatar
    Login

    Hourly Weather Pirmasens

    Today, 17 December, Sunday

    Time Temperature Precipitation Wind Pressure Humidity
    00:00 -1°C° 0.1 mm 3 mps 730 mmHg 92%
    01:00 -2°C° 0 mm 2 mps 730 mmHg 94%
    02:00 -2°C° 0 mm 2 mps 730 mmHg 94%
    03:00 -2°C° 0 mm 2 mps 731 mmHg 94%
    04:00 -2°C° 0 mm 2 mps 731 mmHg 93%
    05:00 -3°C° 0 mm 2 mps 731 mmHg 93%
    06:00 -3°C° 0 mm 2 mps 732 mmHg 93%
    07:00 -4°C° 0 mm 3 mps 732 mmHg 92%
    08:00 -4°C° 0 mm 3 mps 732 mmHg 91%
    09:00 -2°C° 0 mm 3 mps 733 mmHg 89%
    10:00 -2°C° 0 mm 3 mps 733 mmHg 87%
    11:00 -1°C° 0 mm 3 mps 734 mmHg 84%
    12:00 0°C° 0 mm 3 mps 734 mmHg 82%
    13:00 0°C° 0 mm 3 mps 734 mmHg 79%
    14:00 0°C° 0 mm 3 mps 734 mmHg 80%
    15:00 +1°C° 0 mm 2 mps 734 mmHg 82%
    16:00 +1°C° 0 mm 2 mps 735 mmHg 84%
    17:00 +1°C° 0 mm 2 mps 735 mmHg 85%
    18:00 -1°C° 0 mm 2 mps 735 mmHg 86%
    19:00 -1°C° 0 mm 2 mps 735 mmHg 87%
    20:00 -1°C° 0 mm 2 mps 735 mmHg 87%
    21:00 -1°C° 0 mm 3 mps 735 mmHg 87%
    22:00 -1°C° 0 mm 3 mps 735 mmHg 87%
    23:00 -1°C° 0 mm 3 mps 735 mmHg 86%

    Tomorrow, 18 December, Monday

    Time Temperature Precipitation Wind Pressure Humidity
    00:00 -1°C° 0 mm 3 mps 735 mmHg 85%
    01:00 -2°C° 0 mm 4 mps 734 mmHg 84%
    02:00 -2°C° 0.2 mm 4 mps 734 mmHg 84%
    03:00 -2°C° 0.2 mm 4 mps 733 mmHg 85%
    04:00 -2°C° 0.2 mm 4 mps 732 mmHg 85%
    05:00 -2°C° 0.6 mm 4 mps 732 mmHg 87%
    06:00 -2°C° 0.6 mm 4 mps 731 mmHg 88%
    07:00 -2°C° 0.6 mm 4 mps 731 mmHg 89%
    08:00 -2°C° 0.5 mm 4 mps 731 mmHg 91%
    09:00 -1°C° 0.5 mm 3 mps 731 mmHg 92%
    10:00 -1°C° 0.5 mm 2 mps 731 mmHg 93%
    11:00 +1°C° 0.2 mm 2 mps 731 mmHg 94%
    12:00 +1°C° 0.2 mm 2 mps 731 mmHg 95%
    13:00 +3°C° 0.2 mm 1 mps 731 mmHg 96%
    14:00 +3°C° 0 mm 1 mps 732 mmHg 96%
    15:00 +3°C° 0 mm 1 mps 732 mmHg 97%
    16:00 +3°C° 0 mm 1 mps 733 mmHg 97%
    17:00 +2°C° 0 mm 1 mps 733 mmHg 97%
    18:00 +2°C° 0 mm 1 mps 734 mmHg 97%
    19:00 +2°C° 0 mm 1 mps 735 mmHg 97%
    20:00 +2°C° 0 mm 1 mps 735 mmHg 96%
    21:00 +2°C° 0 mm 1 mps 736 mmHg 96%
    22:00 +2°C° 0 mm 1 mps 736 mmHg 96%
    23:00 +2°C° 0 mm 1 mps 736 mmHg 96%

    Day after tomorrow, 19 December, Tuesday

    Time Temperature Precipitation Wind Pressure Humidity
    00:00 +1°C° 0 mm 1 mps 737 mmHg 95%
    01:00 +1°C° 0 mm 1 mps 737 mmHg 95%
    02:00 +1°C° 0 mm 1 mps 737 mmHg 95%
    03:00 +1°C° 0 mm 1 mps 738 mmHg 95%
    04:00 +1°C° 0 mm 1 mps 738 mmHg 95%
    05:00 +1°C° 0 mm 1 mps 738 mmHg 95%
    06:00 +1°C° 0 mm 1 mps 739 mmHg 95%
    07:00 +1°C° 0 mm 1 mps 739 mmHg 95%
    08:00 +1°C° 0 mm 1 mps 739 mmHg 94%
    09:00 +1°C° 0 mm 1 mps 740 mmHg 94%
    10:00 +1°C° 0 mm 1 mps 740 mmHg 93%
    11:00 +2°C° 0 mm 1 mps 741 mmHg 91%
    12:00 +3°C° 0 mm 1 mps 741 mmHg 89%
    13:00 +3°C° 0 mm 2 mps 741 mmHg 87%
    14:00 +3°C° 0 mm 1 mps 741 mmHg 89%
    15:00 +3°C° 0 mm 1 mps 741 mmHg 91%
    16:00 +3°C° 0 mm 1 mps 741 mmHg 93%
    17:00 +2°C° 0 mm 1 mps 741 mmHg 93%
    18:00 +2°C° 0 mm 1 mps 741 mmHg 94%
    19:00 +2°C° 0 mm 1 mps 741 mmHg 94%
    20:00 +2°C° 0.1 mm 1 mps 742 mmHg 95%
    21:00 +2°C° 0.1 mm 1 mps 742 mmHg 95%
    22:00 +2°C° 0.1 mm 1 mps 742 mmHg 95%
    23:00 +2°C° 0.3 mm 1 mps 741 mmHg 95%

    20 December, Wednesday

    Time Temperature Precipitation Wind Pressure Humidity
    00:00 +1°C° 0.3 mm 2 mps 741 mmHg 95%
    01:00 +1°C° 0.3 mm 2 mps 741 mmHg 95%
    02:00 +1°C° 0.3 mm 2 mps 741 mmHg 95%
    03:00 +1°C° 0.3 mm 2 mps 741 mmHg 95%
    04:00 +1°C° 0.3 mm 2 mps 740 mmHg 95%
    05:00 +1°C° 0.2 mm 2 mps 740 mmHg 95%
    06:00 +1°C° 0.2 mm 2 mps 740 mmHg 95%
    07:00 +1°C° 0.2 mm 2 mps 740 mmHg 95%
    08:00 +1°C° 0.2 mm 2 mps 740 mmHg 95%
    09:00 +2°C° 0.2 mm 2 mps 740 mmHg 95%
    10:00 +2°C° 0.2 mm 2 mps 741 mmHg 95%
    11:00 +2°C° 0.1 mm 2 mps 741 mmHg 94%
    12:00 +2°C° 0.1 mm 2 mps 741 mmHg 94%
    13:00 +2°C° 0.1 mm 2 mps 741 mmHg 94%
    14:00 +2°C° 0.2 mm 2 mps 741 mmHg 94%
    15:00 +2°C° 0.2 mm 2 mps 740 mmHg 95%
    16:00 +2°C° 0.2 mm 2 mps 740 mmHg 95%
    17:00 +3°C° 0.1 mm 2 mps 741 mmHg 95%
    18:00 +3°C° 0.1 mm 2 mps 741 mmHg 96%
    19:00 +3°C° 0.1 mm 2 mps 741 mmHg 96%
    20:00 +3°C° 0.1 mm 2 mps 741 mmHg 96%
    21:00 +3°C° 0.1 mm 2 mps 741 mmHg 96%
    22:00 +3°C° 0.1 mm 2 mps 741 mmHg 97%
    23:00 +3°C° 0.1 mm 2 mps 741 mmHg 97%

    21 December, Thursday

    Time Temperature Precipitation Wind Pressure Humidity
    00:00 +3°C° 0.1 mm 2 mps 741 mmHg 97%
    01:00 +4°C° 0.1 mm 2 mps 741 mmHg 97%
    02:00 +4°C° 0.1 mm 2 mps 741 mmHg 97%
    03:00 +3°C° 0.1 mm 3 mps 741 mmHg 97%
    04:00 +3°C° 0.1 mm 3 mps 741 mmHg 97%
    05:00 +4°C° 0 mm 3 mps 741 mmHg 96%
    06:00 +4°C° 0 mm 3 mps 741 mmHg 96%
    07:00 +4°C° 0 mm 3 mps 741 mmHg 96%
    08:00 +4°C° 0.2 mm 4 mps 741 mmHg 96%
    09:00 +5°C° 0.2 mm 4 mps 741 mmHg 95%
    10:00 +5°C° 0.2 mm 4 mps 741 mmHg 95%
    11:00 +5°C° 0.7 mm 4 mps 741 mmHg 95%
    12:00 +5°C° 0.7 mm 5 mps 741 mmHg 94%
    13:00 +6°C° 0.7 mm 5 mps 741 mmHg 93%
    14:00 +6°C° 1.1 mm 5 mps 740 mmHg 93%
    15:00 +6°C° 1.1 mm 5 mps 740 mmHg 93%
    16:00 +6°C° 1.1 mm 5 mps 739 mmHg 93%
    17:00 +6°C° 0.7 mm 5 mps 739 mmHg 93%
    18:00 +6°C° 0.7 mm 5 mps 739 mmHg 93%
    19:00 +5°C° 0.7 mm 6 mps 739 mmHg 92%
    20:00 +7°C° 0.2 mm 6 mps 739 mmHg 92%
    21:00 +7°C° 0.2 mm 6 mps 738 mmHg 91%
    22:00 +7°C° 0.2 mm 6 mps 738 mmHg 91%
    23:00 +7°C° 1 mm 6 mps 738 mmHg 91%

    22 December, Friday

    Time Temperature Precipitation Wind Pressure Humidity
    00:00 +7°C° 1 mm 6 mps 738 mmHg 90%
    01:00 +7°C° 1 mm 6 mps 738 mmHg 90%
    02:00 +5°C° 0.3 mm 6 mps 738 mmHg 88%
    03:00 +6°C° 0.3 mm 5 mps 739 mmHg 86%
    04:00 +5°C° 0.3 mm 5 mps 739 mmHg 83%
    05:00 +5°C° 0.1 mm 4 mps 740 mmHg 84%
    06:00 +4°C° 0.1 mm 3 mps 741 mmHg 84%
    07:00 +4°C° 0.1 mm 3 mps 741 mmHg 85%
    08:00 +3°C° 0 mm 3 mps 742 mmHg 84%
    09:00 +3°C° 0 mm 3 mps 743 mmHg 84%
    10:00 +3°C° 0 mm 3 mps 743 mmHg 83%
    11:00 +3°C° 0 mm 3 mps 744 mmHg 80%
    12:00 +4°C° 0 mm 3 mps 744 mmHg 76%
    13:00 +4°C° 0 mm 4 mps 744 mmHg 72%
    14:00 +3°C° 0 mm 3 mps 744 mmHg 74%
    15:00 +3°C° 0 mm 3 mps 744 mmHg 77%
    16:00 +3°C° 0 mm 3 mps 744 mmHg 79%
    17:00 +2°C° 0 mm 3 mps 744 mmHg 82%
    18:00 +2°C° 0 mm 3 mps 744 mmHg 84%
    19:00 +1°C° 0 mm 3 mps 745 mmHg 86%
    20:00 +1°C° 0 mm 3 mps 745 mmHg 88%
    21:00 +1°C° 0 mm 3 mps 745 mmHg 89%
    22:00 0°C° 0 mm 3 mps 745 mmHg 91%
    23:00 0°C° 0 mm 3 mps 744 mmHg 91%
    Show more